Location: Joplin, MO
(37.0842°N, 94.5133°W)
Time: 20:53:50
(UTC+02:00)

Courier 1B Rocket - Pass Details

Date: 31 March 2023
Orbit: 920 x 1202 km, 28.2° (Epoch: 05 June)

Event Time Altitude Azimuth Distance (km) Brightness Sun altitude
Rises 05:24:59 0° 263° (W) 3,888 8.8 -31.8°
Reaches altitude 10° 05:28:04 10° 254° (WSW) 2,884 7.9 -32.3°
Enters shadow 05:32:13 29° 224° (SW) 1,795 6.4 -32.9°
Maximum altitude 05:34:15 34° 192° (SSW) 1,594 - -33.3°
Drops below altitude 10° 05:40:04 10° 129° (SE) 2,704 - -34.2°
Sets 05:42:52 0° 121° (ESE) 3,616 - -34.6°
